Location: Golden Pond Observatory
(36.7667°N, 88.0167°W)
Time: 10:15:07
(UTC-05:00)

ISS - Pass Details

Date: 20 July 2018
Orbit: 402 x 409 km, 51.6° (Epoch: 16 August)

Event Time Altitude Azimuth Distance (km) Brightness Sun altitude
Rises 22:48:57 0° 273° (W) 2,320 0.5 -25.1°
Reaches altitude 10° 22:51:44 10° 299° (WNW) 1,465 -0.2 -25.4°
Maximum altitude 22:53:40 15° 335° (NNW) 1,222 -0.5 -25.6°
Drops below altitude 10° 22:55:36 10° 12° (NNE) 1,471 -0.4 -25.8°
Sets 22:58:32 0° 38° (NE) 2,383 0.3 -26.1°
